When you browse on this site, cookies collect data to enhance your experience and personalize the content and advertising you see.
Visit our Privacy Policy to learn more. By continuing to use the site, you agree to this use of cookies and data.
  • In Hungary
  • List of Countries
  • For 7 days
  • Water Temperature
  • Satellite Maps
  • Weather Map
  • News
  • Weather Widgets
  • user-avatar
    Login

    Hourly Weather Gori

    Today, 21 November, Wednesday

    Time Temperature Precipitation Wind Pressure Humidity
    00:00 +8°C° 0.1 mm 2 mps 700 mmHg 81%
    01:00 +8°C° 0 mm 2 mps 700 mmHg 83%
    02:00 +8°C° 0 mm 2 mps 700 mmHg 85%
    03:00 +7°C° 0 mm 4 mps 699 mmHg 87%
    04:00 +7°C° 0 mm 4 mps 699 mmHg 87%
    05:00 +8°C° 0 mm 3 mps 699 mmHg 88%
    06:00 +7°C° 0 mm 3 mps 699 mmHg 88%
    07:00 +8°C° 0 mm 3 mps 699 mmHg 85%
    08:00 +8°C° 0 mm 3 mps 699 mmHg 83%
    09:00 +9°C° 0 mm 3 mps 698 mmHg 80%
    10:00 +9°C° 0 mm 3 mps 698 mmHg 78%
    11:00 +10°C° 0 mm 4 mps 698 mmHg 75%
    12:00 +10°C° 0 mm 4 mps 698 mmHg 73%
    13:00 +10°C° 0 mm 4 mps 698 mmHg 74%
    14:00 +10°C° 0 mm 3 mps 697 mmHg 74%
    15:00 +10°C° 0 mm 3 mps 697 mmHg 75%
    16:00 +9°C° 0 mm 2 mps 697 mmHg 78%
    17:00 +8°C° 0 mm 2 mps 697 mmHg 81%
    18:00 +9°C° 0 mm 1 mps 697 mmHg 84%
    19:00 +9°C° 0 mm 1 mps 697 mmHg 84%
    20:00 +9°C° 0 mm 1 mps 697 mmHg 84%
    21:00 +8°C° 0 mm 1 mps 697 mmHg 84%
    22:00 +8°C° 0.4 mm 1 mps 697 mmHg 85%
    23:00 +8°C° 0.4 mm 1 mps 697 mmHg 86%

    Tomorrow, 22 November, Thursday

    Time Temperature Precipitation Wind Pressure Humidity
    00:00 +8°C° 0.4 mm 1 mps 697 mmHg 87%
    01:00 +8°C° 0.5 mm 1 mps 697 mmHg 88%
    02:00 +8°C° 0.5 mm 1 mps 696 mmHg 89%
    03:00 +8°C° 0.5 mm 1 mps 696 mmHg 90%
    04:00 +8°C° 0.4 mm 1 mps 696 mmHg 90%
    05:00 +8°C° 0.4 mm 1 mps 696 mmHg 91%
    06:00 +8°C° 0.4 mm 1 mps 696 mmHg 91%
    07:00 +8°C° 0.4 mm 1 mps 696 mmHg 90%
    08:00 +7°C° 0.4 mm 2 mps 696 mmHg 90%
    09:00 +7°C° 0.4 mm 2 mps 696 mmHg 89%
    10:00 +7°C° 0.4 mm 2 mps 696 mmHg 87%
    11:00 +8°C° 0.4 mm 2 mps 696 mmHg 86%
    12:00 +8°C° 0.4 mm 2 mps 696 mmHg 84%
    13:00 +8°C° 0.4 mm 2 mps 696 mmHg 84%
    14:00 +9°C° 0.4 mm 1 mps 696 mmHg 84%
    15:00 +9°C° 0.4 mm 1 mps 696 mmHg 85%
    16:00 +9°C° 0.4 mm 1 mps 696 mmHg 86%
    17:00 +8°C° 0.4 mm 1 mps 696 mmHg 88%
    18:00 +8°C° 0.4 mm 1 mps 697 mmHg 89%
    19:00 +8°C° 0.1 mm 1 mps 697 mmHg 89%
    20:00 +7°C° 0.1 mm 0 mps 697 mmHg 89%
    21:00 +7°C° 0.1 mm 0 mps 697 mmHg 89%
    22:00 +7°C° 0.1 mm 0 mps 697 mmHg 89%
    23:00 +7°C° 0.1 mm 0 mps 697 mmHg 90%

    Day after tomorrow, 23 November, Friday

    Time Temperature Precipitation Wind Pressure Humidity
    00:00 +6°C° 0.1 mm 0 mps 698 mmHg 90%
    01:00 +6°C° 0.1 mm 0 mps 698 mmHg 90%
    02:00 +6°C° 0.1 mm 0 mps 698 mmHg 90%
    03:00 +7°C° 0.1 mm 1 mps 698 mmHg 90%
    04:00 +7°C° 0.1 mm 1 mps 698 mmHg 90%
    05:00 +7°C° 0.1 mm 1 mps 698 mmHg 89%
    06:00 +7°C° 0.1 mm 1 mps 698 mmHg 89%
    07:00 +7°C° 0.2 mm 1 mps 698 mmHg 87%
    08:00 +8°C° 0.2 mm 1 mps 699 mmHg 85%
    09:00 +8°C° 0.2 mm 1 mps 699 mmHg 84%
    10:00 +8°C° 0.1 mm 2 mps 699 mmHg 82%
    11:00 +8°C° 0.1 mm 2 mps 699 mmHg 81%
    12:00 +9°C° 0.1 mm 3 mps 699 mmHg 80%
    13:00 +8°C° 0 mm 3 mps 699 mmHg 79%
    14:00 +8°C° 0 mm 3 mps 699 mmHg 78%
    15:00 +7°C° 0 mm 4 mps 699 mmHg 77%
    16:00 +6°C° 0 mm 4 mps 700 mmHg 80%
    17:00 +7°C° 0 mm 3 mps 700 mmHg 82%
    18:00 +5°C° 0 mm 3 mps 701 mmHg 85%
    19:00 +4°C° 0 mm 3 mps 702 mmHg 85%
    20:00 +4°C° 0 mm 3 mps 702 mmHg 85%
    21:00 +4°C° 0 mm 3 mps 703 mmHg 85%
    22:00 +4°C° 0 mm 2 mps 703 mmHg 85%
    23:00 +4°C° 0 mm 2 mps 704 mmHg 86%

    24 November, Saturday

    Time Temperature Precipitation Wind Pressure Humidity
    00:00 +4°C° 0 mm 2 mps 704 mmHg 86%
    01:00 +4°C° 0 mm 2 mps 704 mmHg 86%
    02:00 +4°C° 0 mm 1 mps 705 mmHg 85%
    03:00 +4°C° 0 mm 1 mps 705 mmHg 85%
    04:00 +4°C° 0 mm 1 mps 705 mmHg 84%
    05:00 +4°C° 0 mm 1 mps 705 mmHg 84%
    06:00 +3°C° 0 mm 0 mps 706 mmHg 83%
    07:00 +5°C° 0 mm 1 mps 706 mmHg 79%
    08:00 +5°C° 0 mm 1 mps 707 mmHg 75%
    09:00 +6°C° 0 mm 1 mps 707 mmHg 70%
    10:00 +6°C° 0 mm 2 mps 707 mmHg 68%
    11:00 +7°C° 0 mm 3 mps 707 mmHg 66%
    12:00 +7°C° 0 mm 4 mps 706 mmHg 64%
    13:00 +6°C° 0 mm 4 mps 706 mmHg 67%
    14:00 +6°C° 0 mm 4 mps 706 mmHg 69%
    15:00 +6°C° 0 mm 4 mps 706 mmHg 72%
    16:00 +5°C° 0 mm 4 mps 706 mmHg 74%
    17:00 +4°C° 0 mm 3 mps 707 mmHg 76%
    18:00 +3°C° 0 mm 3 mps 707 mmHg 77%
    19:00 +3°C° 0 mm 3 mps 707 mmHg 77%
    20:00 +3°C° 0 mm 3 mps 707 mmHg 77%
    21:00 +3°C° 0 mm 3 mps 707 mmHg 76%
    22:00 +2°C° 0 mm 3 mps 707 mmHg 77%
    23:00 +2°C° 0 mm 3 mps 707 mmHg 77%

    25 November, Sunday

    Time Temperature Precipitation Wind Pressure Humidity
    00:00 +2°C° 0 mm 3 mps 706 mmHg 78%
    01:00 +3°C° 0 mm 2 mps 706 mmHg 78%
    02:00 +3°C° 0 mm 2 mps 705 mmHg 78%
    03:00 +3°C° 0 mm 2 mps 705 mmHg 79%
    04:00 +3°C° 0 mm 2 mps 704 mmHg 78%
    05:00 +3°C° 0 mm 2 mps 704 mmHg 78%
    06:00 +3°C° 0 mm 2 mps 704 mmHg 77%
    07:00 +3°C° 0 mm 2 mps 703 mmHg 74%
    08:00 +5°C° 0 mm 1 mps 703 mmHg 71%
    09:00 +6°C° 0 mm 1 mps 703 mmHg 67%
    10:00 +8°C° 0 mm 1 mps 702 mmHg 64%
    11:00 +9°C° 0 mm 1 mps 702 mmHg 62%
    12:00 +9°C° 0 mm 2 mps 701 mmHg 59%
    13:00 +10°C° 0 mm 1 mps 701 mmHg 59%
    14:00 +10°C° 0 mm 1 mps 700 mmHg 59%
    15:00 +11°C° 0 mm 1 mps 700 mmHg 59%
    16:00 +9°C° 0 mm 1 mps 700 mmHg 62%
    17:00 +8°C° 0 mm 1 mps 700 mmHg 65%
    18:00 +7°C° 0 mm 1 mps 700 mmHg 68%
    19:00 +7°C° 0 mm 1 mps 700 mmHg 67%
    20:00 +7°C° 0 mm 1 mps 700 mmHg 66%
    21:00 +6°C° 0 mm 1 mps 700 mmHg 65%
    22:00 +6°C° 0 mm 1 mps 700 mmHg 65%
    23:00 +6°C° 0 mm 1 mps 700 mmHg 65%

    26 November, Monday

    Time Temperature Precipitation Wind Pressure Humidity
    00:00 +6°C° 0 mm 1 mps 699 mmHg 64%
    01:00 +6°C° 0 mm 1 mps 699 mmHg 64%
    02:00 +5°C° 0 mm 1 mps 699 mmHg 64%
    03:00 +5°C° 0 mm 1 mps 699 mmHg 64%
    04:00 +5°C° 0 mm 1 mps 699 mmHg 65%
    05:00 +5°C° 0 mm 1 mps 699 mmHg 65%
    06:00 +5°C° 0 mm 1 mps 699 mmHg 65%
    07:00 +6°C° 0 mm 1 mps 699 mmHg 63%
    08:00 +7°C° 0 mm 1 mps 699 mmHg 61%
    09:00 +8°C° 0 mm 1 mps 699 mmHg 59%
    10:00 +9°C° 0 mm 1 mps 699 mmHg 57%
    11:00 +10°C° 0 mm 1 mps 699 mmHg 55%
    12:00 +12°C° 0 mm 1 mps 698 mmHg 53%
    13:00 +12°C° 0 mm 1 mps 698 mmHg 54%
    14:00 +12°C° 0 mm 1 mps 698 mmHg 55%
    15:00 +12°C° 0 mm 1 mps 697 mmHg 56%
    16:00 +10°C° 0 mm 1 mps 698 mmHg 59%
    17:00 +9°C° 0 mm 1 mps 698 mmHg 63%
    18:00 +7°C° 0 mm 1 mps 698 mmHg 66%
    19:00 +7°C° 0 mm 1 mps 698 mmHg 66%
    20:00 +7°C° 0 mm 1 mps 698 mmHg 66%
    21:00 +6°C° 0 mm 1 mps 698 mmHg 66%
    22:00 +6°C° 0 mm 1 mps 698 mmHg 66%
    23:00 +6°C° 0 mm 1 mps 698 mmHg 66%
    Show more